Powrót do katalogu

STARLINK-32878

AktywnyŁącznośćVLEO
NORAD 62892·PAYLOAD·🇺🇸 United States

Wystrzelony Feb 4, 2025 z Cape Canaveral Space Force Station

Loading…

Następne Przeloty (najbliższe 24 godziny)

TLE

ŚwieżeSource: CelesTrak SupGP

Epoka: Sep 14, 2026, 21:45 UTC

1 62892C 25024P   26257.90673611 -.00024861  00000+0 -90041-3 0  2571
2 62892  43.0019 336.9016 0001581 275.2322  51.2429 15.27592755    14

Śledź STARLINK-32878 w czasie rzeczywistym z AllMySat

Download on the App Store